Orebro current weather conditions

sailwx.info

Wind from 240 at 11 knots

Air temperature 4.0° C
Visibility: greater than 5.4 NM
Dewpoint 2.0° C

Last reported at 2017-Feb-22 20:20 UTC.
Time now 2017-Feb-22 22:05 UTC

Location: N 59°13' E 015°02'.
View on Google Maps.

See reports from other nearby stations

  
Tides and Currents Weather Stations Pressure Air Temp Water Temp Dewpoint Dewpoint Depression Visibility Wind Speed Wind Dir Waves Ship Positions
date/time (UTC)wind fromknots sea level pressurealtimeterstation pressurevisibilityair tempwater tempwave heightnotes
2017-Feb-22 20:20 240 11 5.4 4.0
2017-Feb-22 19:50 260 9 5.4 3.0
2017-Feb-22 19:20 250 11 4.9 3.0 Drizzle.
2017-Feb-22 18:50 240 14 5.4 4.0 Drizzle.
2017-Feb-22 18:20 240 13 5.4 3.0
2017-Feb-22 17:50 240 14 5.4 4.0 Drizzle.
2017-Feb-22 17:20 240 14 gusting 25 3.8 4.0 Light rain.
2017-Feb-22 16:50 240 15 gusting 27 4.3 4.0 Light rain.
2017-Feb-22 16:20 240 14 5.4 4.0 Drizzle.
2017-Feb-22 15:50 240 13 5.4 3.0 Light rain.
2017-Feb-22 15:20 240 17 5.4 4.0 Light rain.
2017-Feb-22 14:50 240 15 5.4 4.0
2017-Feb-22 14:20 240 15 5.4 4.0
2017-Feb-22 13:50 250 17 5.4 4.0
2017-Feb-22 13:20 250 17 5.4 4.0
2017-Feb-22 12:50 240 13 5.4 3.0
2017-Feb-22 12:20 250 13 5.4 3.0
2017-Feb-22 11:50 260 14 gusting 26 5.4 2.0
2017-Feb-22 11:20 260 15 5.4 2.0
2017-Feb-22 10:50 250 15 4.3 2.0 Light drizzle snow.
2017-Feb-22 10:20 250 6 1.1 1.0 Light snow.
2017-Feb-22 09:50 240 2 1.1 1.0 Light snow.
2017-Feb-22 09:20 150 4 1.1 1.0 Light snow.
2017-Feb-22 08:50 140 5 1.6 1.0 Light snow.
2017-Feb-22 08:20 130 6 0.6 1.0 Light snow.
2017-Feb-22 07:50 130 6 1.1 1.0 Light snow.
2017-Feb-22 07:20 120 7 0.8 1.0 Snow.
2017-Feb-22 06:50 110 7 0.8 1.0 Snow.
2017-Feb-22 06:20 130 8 0.8 1.0 Light snow.
2017-Feb-22 05:50 130 8 0.7 1.0 Snow.
2017-Feb-22 05:20 140 9 1.1 1.0 Light snow.
2017-Feb-22 04:50 150 8 2.2 1.0 Light snow.
2017-Feb-22 04:20 150 8 2.0 1.0 Light snow.
2017-Feb-22 03:50 150 9 1.1 1.0 Light snow.
2017-Feb-22 03:20 150 9 1.4 1.0 Light ice pellets.
2017-Feb-22 02:50 150 8 3.2 1.0 Light rain snow.
2017-Feb-22 02:20 180 9 5.4 1.0
2017-Feb-22 01:50 180 7 5.4-0.0
2017-Feb-22 01:20 150 6 5.4-0.0
2017-Feb-22 00:50 140 6 5.4-1.0
2017-Feb-22 00:20 140 6 5.4-1.0
2017-Feb-21 23:50 130 6 5.4-1.0
2017-Feb-21 23:20 130 5 5.4-1.0
2017-Feb-21 22:50 120 5 5.4-3.0
2017-Feb-21 22:20 130 4 5.4-3.0
2017-Feb-21 21:50 5.4-4.0
2017-Feb-21 21:20 5.4-5.0
2017-Feb-21 20:50 5.4-7.0
2017-Feb-21 20:20 170 1 0.4-7.0 Patches of fog.
2017-Feb-21 19:50 220 2 0.4-7.0 Patches of fog.
2017-Feb-21 19:20 230 1 0.4-7.0 Patches of fog.
2017-Feb-21 18:50 230 4 0.2-7.0 Patches of fog.
2017-Feb-21 18:20 210 4 0.4-6.0 Patches of fog.
2017-Feb-21 17:50 220 2 5.4-6.0 Patches of fog.
2017-Feb-21 17:20 250 2 5.4-4.0 Patches of fog.
2017-Feb-21 16:50 270 4 5.4-4.0 Patches of fog.
2017-Feb-21 16:20 260 1 5.4-4.0 Patches of fog.
2017-Feb-21 15:50 340 1 5.4-1.0 Shallow fog.
2017-Feb-21 15:20 350 2 5.4-0.0
2017-Feb-21 14:50 010 4 5.4-0.0
2017-Feb-21 14:20 010 4 5.4-1.0
2017-Feb-21 13:50 010 5 5.4-0.0
2017-Feb-21 13:20 030 6 5.4-0.0
2017-Feb-21 12:50 030 6 5.4 1.0
2017-Feb-21 12:20 040 8 5.4-0.0 Snow grains.
2017-Feb-21 11:50 050 9 5.4 1.0 Light snow.
2017-Feb-21 11:20 020 7 5.4-0.0
2017-Feb-21 10:50 050 9 5.4-0.0 Light snow.
2017-Feb-21 10:20 040 9 4.3-0.0 Snow grains.
2017-Feb-21 09:50 060 8 3.2-0.0 Light snow.
2017-Feb-21 09:20 050 11 1.9-0.0 Light snow.
2017-Feb-21 08:50 040 9 1.1-0.0 Light snow.
2017-Feb-21 08:20 050 8 0.8-0.0 Light snow.
2017-Feb-21 07:50 030 6 0.9-0.0 Snow.
2017-Feb-21 07:20 050 8 0.8-0.0 Snow.
2017-Feb-21 06:50 040 7 1.1-0.0 Snow.
2017-Feb-21 06:20 060 8 1.2-0.0 Snow.
2017-Feb-21 05:50 050 6 1.1-0.0 Snow.
2017-Feb-21 05:20 060 9 0.8-0.0 Snow.
2017-Feb-21 04:50 060 9 1.1-0.0 Snow.
2017-Feb-21 04:20 050 6 0.5 1.0 Snow.
2017-Feb-21 03:50 060 6 1.2 1.0 Light snow.
2017-Feb-21 03:20 040 6 1.9 1.0 Light rain snow.
2017-Feb-21 02:50 050 7 2.2 1.0 Mist.
2017-Feb-21 02:20 070 9 2.3 1.0 Mist.
2017-Feb-21 01:50 070 7 1.8 2.0
2017-Feb-21 01:20 060 8 2.4 3.0
2017-Feb-21 00:50 020 5 0.6 4.0 Drizzle.
2017-Feb-21 00:20 4.9 4.0
2017-Feb-20 23:50 280 4 2.7 4.0 Mist.
2017-Feb-20 23:20 290 2 5.4 4.0
2017-Feb-20 22:50 270 2 5.4 5.0
2017-Feb-20 22:20 270 5 5.4 5.0